Date,TemperatureHighF,TemperatureAvgF,TemperatureLowF,DewpointHighF,DewpointAvgF,DewpointLowF,HumidityHigh,HumidityAvg,HumidityLow,PressureMaxIn,PressureMinIn,WindSpeedMaxMPH,WindSpeedAvgMPH,GustSpeedMaxMPH,PrecipitationSumIn
2013-6-1,88.0,79.5,74.0,75.0,72.3,71.0,91,79,62,29.98,29.87,17,6,19,0.00
2013-6-2,91.3,80.4,75.3,75.0,73.3,71.0,94,80,52,29.92,29.77,9,4,19,0.02
2013-6-3,88.5,79.4,74.8,75.0,73.0,71.0,94,82,58,29.91,29.79,11,4,17,0.06
2013-6-4,85.6,77.2,72.0,73.0,71.4,69.0,94,83,61,29.95,29.84,16,5,21,0.06
2013-6-5,82.9,76.4,72.6,74.0,71.7,69.0,95,85,65,29.93,29.82,13,3,26,0.78
2013-6-6,78.3,75.1,72.5,75.0,72.7,70.0,96,92,79,29.82,29.57,18,8,31,3.23
2013-6-7,87.5,79.6,73.3,74.0,72.2,71.0,93,79,60,29.86,29.67,16,6,19,0.00
2013-6-8,90.7,76.9,69.2,74.0,71.9,68.0,98,86,56,30.01,29.86,14,3,40,3.03
2013-6-9,91.1,80.6,71.9,76.0,72.8,70.0,97,78,54,30.02,29.93,13,4,24,0.24
2013-6-10,93.7,81.2,75.3,75.0,72.7,68.0,93,77,46,30.01,29.92,10,4,22,0.00
2013-6-11,90.0,79.0,74.1,76.0,73.6,69.0,94,84,57,30.00,29.91,6,2,16,0.20
2013-6-12,93.9,82.2,72.9,76.0,71.9,67.0,92,73,47,29.99,29.89,12,3,18,0.00
2013-6-13,92.7,82.6,74.8,75.0,72.5,70.0,90,73,48,29.94,29.80,16,4,22,0.00
2013-6-14,90.7,82.5,75.6,74.0,71.6,66.0,91,71,44,29.84,29.74,12,5,17,0.00
2013-6-15,87.7,79.9,74.9,77.0,74.2,72.0,92,83,66,29.98,29.82,11,4,15,1.54
2013-6-16,92.0,81.7,76.8,77.0,74.4,72.0,92,79,53,30.00,29.93,18,5,21,0.12
2013-6-17,91.1,81.4,75.1,78.0,75.1,72.0,95,82,58,30.00,29.88,10,4,17,1.91
2013-6-18,93.5,82.7,73.7,78.0,73.5,71.0,93,75,49,29.97,29.85,10,4,17,0.06
2013-6-19,91.3,82.9,75.7,76.0,73.4,69.0,93,74,51,29.95,29.86,15,4,27,0.00
2013-6-20,92.2,79.7,73.0,75.0,72.2,70.0,94,79,51,30.02,29.92,15,3,20,0.43
2013-6-21,91.8,77.6,73.2,73.0,71.6,70.0,95,83,50,30.02,29.95,15,2,25,0.13
2013-6-22,92.9,81.0,73.5,75.0,71.2,65.0,94,74,40,30.03,29.95,10,4,16,0.00
2013-6-23,90.8,80.5,75.2,75.0,73.4,71.0,92,79,53,30.06,29.98,11,4,22,0.62
2013-6-24,91.4,81.9,76.3,76.0,72.9,70.0,91,75,50,30.09,29.98,9,4,15,0.03
2013-6-25,90.5,82.8,75.9,74.0,72.3,68.0,91,72,51,30.07,29.94,10,3,15,0.00
2013-6-26,91.7,82.1,76.3,76.0,72.2,69.0,88,73,53,29.98,29.92,15,4,25,0.00
2013-6-27,94.0,81.7,74.2,75.0,71.9,70.0,90,73,48,29.95,29.83,11,3,12,0.00
2013-6-28,90.8,79.8,72.3,76.0,73.1,67.0,95,81,57,29.88,29.75,27,5,40,0.33
2013-6-29,88.1,80.0,76.4,76.0,73.4,70.0,92,81,60,29.79,29.70,14,7,19,0.00
2013-6-30,87.5,77.5,74.6,77.0,73.3,71.0,93,87,66,29.79,29.72,17,5,23,0.29